Regional Weather Roundup
Issued by NWS

Home | Current Version | Previous Version | Graphics & Text | Print | Product List | Glossary On
Versions: 1 2 3 4 5 6 7 8 9 10 11 12 13 14 15 16 17 18 19 20 21 22 23 24 25 26 27 28 29 30 31 32 33 34 35 36 37 38 39 40 41 42 43 44 45 46 47 48 49 50
000
ASUS43 KFSD 061010
RWRSD

WEATHER ROUNDUP FOR SOUTH DAKOTA
NATIONAL WEATHER SERVICE SIOUX FALLS SD
400 AM CST TUE DEC 06 2016

NOTE: "FAIR" INDICATES FEW OR NO CLOUDS BELOW 12,000 FEET WITH NO
SIGNIFICANT WEATHER AND/OR OBSTRUCTIONS TO VISIBILITY.


SDZ001>005-009-010-012>017-061100-
NORTHWEST AND NORTH CENTRAL SOUTH DAKOTA

CITY           SKY/WX    TMP DP  RH WIND       PRES   REMARKS
BUFFALO          N/A      8   1  73 NW31      29.84S WCI -15
FAITH            N/A      6   2  83 W31G39    29.88R WCI -18
MOBRIDGE       MIX PCPN  13   7  77 NW30G43   29.76R WCI  -8
$$

SDZ012>016-024>037-041>051-057-063-072>074-061100-
SOUTHWEST AND SOUTH CENTRAL SOUTH DAKOTA

CITY           SKY/WX    TMP DP  RH WIND       PRES   REMARKS
RAPID CTY ARPT CLEAR      8   1  73 CALM      29.92S
PIERRE         CLOUDY    14   6  70 W26G38    29.89S WCI  -6
CUSTER         CLEAR      8  -2  63 W17G28    29.79R WCI -10
ELLSWORTH AFB  CLEAR     16   2  54 NW18      29.90S WCI  -1
PHILIP         CLEAR     13   4  67 W29G37    29.96R WCI  -8
PINE RIDGE     CLEAR     14   6  70 W17G23    29.93F WCI  -3
SPEARFISH      FAIR      12   1  62 W15G24    29.92R WCI  -4
WINNER         FAIR      17   8  67 W17G29    29.94R WCI   1
$$

SDZ004>011-016>023-039-040-061100-
NORTHEAST SOUTH DAKOTA

CITY           SKY/WX    TMP DP  RH WIND       PRES   REMARKS
ABERDEEN       FLURRIES  17   8  67 W30G39    29.68F WCI  -3
WATERTOWN      LGT SNOW  14   8  77 W26G39    29.68F WCI  -6
BROOKINGS      FLURRIES  14   8  77 W23G29    29.76  WCI  -5
SISSETON         N/A     18  10  71 W18G33    29.60R WCI   2
$$

SDZ017-020-022-023-036>040-048>070-061100-
SOUTHEAST SOUTH DAKOTA

CITY           SKY/WX    TMP DP  RH WIND       PRES   REMARKS
SIOUX FALLS    MOCLDY    17  10  74 W18G31    29.84F WCI   1
HURON          MOCLDY    15   7  70 W22G29    29.85R WCI  -3
CHAMBERLAIN    CLEAR     17   9  71 W28G33    29.91S WCI  -2
MITCHELL       MOCLDY    17  11  77 W15       29.89S WCI   2
YANKTON        CLEAR     18   9  68 W20G26    29.93S WCI   1
$$

ABBREVIATIONS USED IN REMARKS
   TC - TEMPERATURE IN CELSIUS
  WCI - WIND CHILL INDEX
   HX - HEAT INDEX
  VSB - VISIBILITY





USA.gov is the U.S. government's official web portal to all federal, state and local government web resources and services.